sat.trackr.live / text

‹ back to catalog

QIANFAN-153

NORAD 69112 · 2026-108J

PAYLOAD ACTIVE UNKNOWN

§ Identity

Operator
Country
PRC
Launch date
2026-05-17
Launch site
WSC
Launch vehicle
Mass (kg)
RCS (m²)

External: N2YO · Heavens-Above · Gunter

§ Orbital elements

Epoch: 2026-09-20T04:11:08.763072Z

Period
106.59 min
Inclination
89.0186°
Eccentricity
0.0002232
Mean motion
13.51024993 rev/d
Perigee alt
1,066.8 km
Apogee alt
1,070.2 km
Semi-major
7,446.6 km
B*
1.6222e-4
RAAN
12.5272°
Arg perigee
103.6801°
Mean anomaly
256.4598°
Rev number
1,727

§ Raw data

QIANFAN-1531 69112U 26108J   26263.17440698  .00000117  00000+0  16222-3 0  99982 69112  89.0186  12.5272 0002232 103.6801 256.4598 13.51024993 17273

JSON: /api/v1/satellites/69112 · /tle

For live sub-satellite position, see the globe view (requires WebGL).

§ Visibility from observer

Set your observer location to see the next 7 days of passes ≥ 10°. The values pass through the URL so the page stays shareable.

No JS? Fill the form by hand. The geolocation button needs JavaScript.